FW6288 Weather Reports


Display with metric or nautical units.
time (UTC)temp
F
wind
direction
speed
MPH
gust
MPH
rain 1hr
in
rain 24hr
in
rain mn
in
humidity
%
barometer
mb
20260504050006 39 85 1.0 10.0 0.02 0.61 0.02 95 974.4
20260504044508 39 332 3.0 16.0 0.02 0.61 0.02 95 975.2
20260504043100 39 25 3.0 14.0 0.01 0.61 0.02 94 975.9
20260504041557 40 217 3.0 19.0 0.02 0.61 0.02 94 976.4
20260504040053 40 156 7.0 19.0 0.01 0.60 0.01 95 977.4
20260504034554 40 206 7.0 16.0 0.01 0.60 0.01 95 978.1
20260504033054 40 70 1.0 6.0 0.01 0.60 0.01 95 979.1
20260504031544 41 52 2.0 12.0 0.00 0.59 0.00 95 979.8
20260504030039 41 160 6.0 17.0 0.01 0.59 0.59 96 980.4
20260504024540 41 128 10.0 21.0 0.01 0.59 0.59 98 980.8
20260504023035 40 197 11.0 17.0 0.02 0.59 0.59 98 981.3
20260504021536 38 357 5.0 13.0 0.02 0.59 0.59 98 982.4
20260504020031 38 40 8.0 17.0 0.03 0.57 0.57 97 982.7
20260504014525 38 48 14.0 24.0 0.05 0.57 0.57 97 983.7
20260504013033 38 2 14.0 26.0 0.06 0.56 0.56 97 984.6
20260504011520 38 21 18.0 30.0 0.07 0.56 0.56 97 985.5
20260504010016 37 44 19.0 28.0 0.08 0.55 0.55 97 986.5
20260504004515 37 56 20.0 29.0 0.09 0.54 0.54 97 987.5
20260504003011 37 62 19.0 29.0 0.13 0.52 0.52 97 988.1
20260504001508 37 23 17.0 31.0 0.14 0.50 0.50 97 989.2
20260504000007 37 40 23.0 34.0 0.15 0.47 0.47 97 989.3
20260503234505 37 20 24.0 37.0 0.15 0.45 0.45 97 989.8
20260503233001 37 357 17.0 26.0 0.11 0.39 0.39 97 991.3
20260503231558 37 357 18.0 28.0 0.10 0.35 0.35 97 992.2
20260503230059 37 2 16.0 26.0 0.09 0.32 0.32 97 993.0
20260503224553 37 46 14.0 23.0 0.09 0.30 0.30 97 994.1
20260503223051 37 357 17.0 25.0 0.10 0.28 0.28 97 994.5
20260503221549 37 46 13.0 22.0 0.13 0.25 0.25 97 995.6
20260503220104 36 33 14.0 20.0 0.15 0.24 0.24 97 995.9
20260503214547 36 46 12.0 22.0 0.12 0.20 0.20 97 996.4
20260503213049 36 39 15.0 28.0 0.09 0.17 0.17 97 996.5
20260503211559 35 2 17.0 24.0 0.06 0.13 0.13 97 996.7
20260503210039 35 23 15.0 23.0 0.02 0.09 0.09 97 998.1
20260503204539 35 64 16.0 22.0 0.02 0.08 0.08 96 998.5
20260503203037 35 24 14.0 26.0 0.02 0.08 0.08 96 999.6
20260503201535 35 48 14.0 26.0 0.02 0.07 0.07 96 999.6
20260503200036 35 55 19.0 27.0 0.04 0.07 0.07 96 1000.1
20260503194531 36 357 17.0 25.0 0.06 0.06 0.06 96 1001.0
20260503193027 36 357 15.0 21.0 0.06 0.06 0.06 96 1002.0
20260503191527 36 18 21.0 27.0 0.05 0.05 0.05 96 1002.5
20260503190023 37 2 17.0 23.0 0.02 0.02 0.02 95 1003.8
20260503184525 37 20 18.0 27.0 0.01 0.01 0.01 95 1004.7
20260503183027 38 2 19.0 23.0 0.00 0.00 0.00 92 1005.5
20260503181526 41 2 12.0 16.0 0.00 0.00 0.00 86 1005.9
20260503180013 42 54 8.0 11.0 0.00 0.00 0.00 83 1006.6
20260503174510 43 357 5.0 11.0 0.00 0.00 0.00 83 1007.0
20260503173112 42 50 5.0 11.0 0.00 0.00 0.00 86 1007.7
20260503171504 40 17 9.0 14.0 0.00 0.00 0.00 91 1007.5
20260503100113 34 199 6.0 9.0 0.00 0.01 0.00 98 1014.7
20260503081540 34 193 4.0 7.0 0.00 0.01 0.00 97 1015.4
20260503071536 34 176 6.0 9.0 0.00 0.02 0.00 98 1015.5
20260503054523 33 174 4.0 8.0 0.00 0.41 0.00 97 1015.9